SPACEMOBILE-SSR01 DEB, 62369

Orbit data source: Space-Track

SPACEMOBILE-SSR01 DEB, 62369 is space debris in LEO originally from a launch on Thu, 12 Sep 2024 UTC launched from the Air Force Eastern Test Range (AFETR). Debris objects in space refer to the collection of defunct objects orbiting the Earth. Examples of debris include non-operational satellites, rocket bodies, and fragments generated from explosions, collisions, or faulty payload assembly.

Loading next visibility...
Identifier
62369, 2024-163F
Orbit
LEO
Country
Flag of USUS
Related business
Manufacturer
AST & Science
Mission
Spacecraft
Bus & Motor
BW3 LVA, Unknown motor
Mass
150 kg wet, 150 kg dry
Launch date (UTC)
2024-09-12 (1 year ago)
Launch vehicle
Unknown
Launch site
Air Force Eastern Test Range (AFETR)
Object type
Payload
Rocket body
Debris
Shape & HBR
Cyl, 3.8 m
Radar Cross Section
1.963 m², Large (>1 m²)

Expand to show TLE details & history
Last TLE update: 12 hours ago

TLE from 12 hours ago
0 SPACEMOBILE-SSR01 DEB
1 62369U 24163F   26035.69545116  .00013387  00000-0  43728-3 0  9994
2 62369  52.9936 180.0907 0009110 107.1715 253.0282 15.32042445 66172
Epoch: 2026-02-04T16:41Z
TLE epoch observation values (Epoch: 2026-02-04T16:41:26.980Z)
Latitude
-0.00004°
Longitude
154.86991°
Altitude
472.428 km
Speed
7.63 km/s
True Right ascension
12h 00m 21s
True Declination
0° 00' 00"
Sunlit
Object was in full shadow at epoch
Visualization orbit readout
Latitude
Unknown
Longitude
Unknown
Altitude
Unknown
Speed
Unknown
Apparent Right ascension
Unknown
Apparent Declination
Unknown
Sunlit
N/A
Visualization observer readout
Local Sidereal Time
06:43:11
Azimuth
Unknown
Elevation
Unknown
Doppler factor
Unknown
Orbital elements
Apogee altitude
476.242 km
Perigee altitude
463.764 km
Semi-major axis
6,848.14 km
Eccentricity
0.00091
Inclination
52.9936°
RAAN
180.0907°
Arg. of periapsis
107.1715°
True anomaly
252.92839°
Mean anomaly
253.0282°
Eccentric anomaly
252.97829°
Mean motion
3.82987 °/min
Orbital period
94 mins
BSTAR
0.00043728
Loading maneuver chart data...
Computing Atmospheric mass density...
Loading historical data...
Loading historical data...
Loading historical data...
Loading historical data...
Loading historical data...
Loading historical data...
Loading historical data...

Documentation

Showing up to 5 results
|